Other Public Products
Issued by NWS Grand Forks, ND

Home | Current Version | Previous Version | Text Only | Print | Product List | Glossary Off
Versions: 1 2 3 4 5 6 7 8 9 10 11 12 13 14 15 16 17 18 19 20 21 22 23 24 25 26 27 28 29 30 31 32 33 34 35 36 37 38 39 40 41 42 43 44 45 46 47 48 49 50

000
FPUS83 KFGF 240710
OPUFGF
PRAIRIE TO PINES WEATHER ROUNDUP
NATIONAL WEATHER SERVICE EASTERN NORTH DAKOTA/GRAND FORKS ND
100 AM CST MON NOV 24 2014

 **SATELLITE DATA USED TO AUGMENT SKY COVER AT AUTOMATED STATIONS**
 *****  WEATHER ACROSS EASTERN NORTH DAKOTA  *****

CITY           SKY/WX    TMP DP  RH WIND       PRES   REMARKS
GRAND FORKS    LGT SNOW  15  10  80 N24G30    29.60S WCI  -4
GRAND FORKS AF CLOUDY    13   9  83 N17G25    29.61S WCI  -4
GRAND CITY NWS   N/A     14 N/A N/A N20         N/A  WCI  -3
BUXTON         NOT AVBL
DEVILS LAKE    CLOUDY    12   1  62 N15G22    29.64R WCI  -4
FARGO          LGT SNOW  17  12  80 NW21      29.58F WCI   0
WAHPETON ARPT  CLOUDY    18  12  79 NW23G29   29.56S WCI   0
$$

 *****  WEATHER ACROSS CENTRAL AND WESTERN NORTH DAKOTA  *****

CITY           SKY/WX    TMP DP  RH WIND       PRES   REMARKS
JAMESTOWN      FLURRIES  14   8  77 NW22G30   29.62S WCI  -4
BISMARCK       FLURRIES  17  11  77 NW16      29.73S WCI   2
MINOT          CLEAR      8   2  76 NW15      29.76F WCI  -9
MINOT AFB      CLEAR      7   4  84 NW15      29.77S WCI -10
GARRISON         N/A     10   6  84 NW14      29.75S WCI  -6
WILLISTON      CLEAR      9   5  84 NE5       29.82S WCI   1
DICKINSON      CLEAR     13  10  88 NW7       29.74S WCI   3
HETTINGER      CLOUDY    18  14  84 NW15      29.74F WCI   4
$$

 *****  OTHER OBSERVATIONS NORTHEAST NORTH DAKOTA  *****

CITY           SKY/WX    TMP DP  RH WIND       PRES   REMARKS
WALHALLA         N/A     10   7  85 NW21G26   29.67S WCI  -9
LANGDON        FLURRIES   9   3  78 NW17G24   29.62S WCI -10
CAVALIER       CLOUDY    12   7  79 N26G32    29.65S WCI  -8
GRAFTON        FLURRIES  14   9  79 N21G36    29.63R WCI  -4
CANDO          CLOUDY    10   5  79 N17G29    29.69R WCI  -7
FORT TOTTEN      N/A     11   5  77 NW10      29.95S WCI  -3
ROLLA          FAIR       5   1  85 NW24G36   29.67S WCI -17
RUGBY          FAIR       9   5  85 NW14      29.71S WCI  -8
 ***** THE ABOVE OBSERVATIONS ARE NON NWS ARE NOT QUALITY
        CONTROLLED AND MAY MIS-REPORT RAIN FOR SNOW...
$$

 *****  OTHER OBSERVATIONS SOUTHEAST NORTH DAKOTA *****

CITY           SKY/WX    TMP DP  RH WIND       PRES   REMARKS
COOPERSTOWN    NOT AVBL
VALLEY CITY    FLURRIES  14  10  85 N18G26    29.60S WCI  -3
OAKES          FLURRIES  16  14  93 NW20      29.60F WCI  -1
GWINNER        CLOUDY    19  12  73 N18       29.60S WCI   4
BUFFALO        NOT AVBL
WYNDMERE         N/A     16  12  86 NW15        N/A  WCI   1
 ***** THE ABOVE OBSERVATIONS ARE NON NWS ARE NOT QUALITY
       CONTROLLED AND MAY MIS-REPORT RAIN FOR SNOW...
$$

  *****  WEATHER ACROSS NORTHERN MINNESOTA  *****

CITY           SKY/WX    TMP DP  RH WIND       PRES   REMARKS
FLAG ISLAND    CLOUDY    23  21  93 N20       29.47R WCI   8
WARROAD        CLOUDY    19  16  86 NW14G22   29.47S FOG     WCI   6
ROSEAU         CLOUDY    19  14  79 NW20      29.50S HAZE    WCI   4
HALLOCK        FLURRIES  14   9  79 N23G30    29.60S WCI  -5
THF RVR FALLS  CLOUDY    16  10  79 NW17      29.52S WCI   0
HALSTAD          N/A     15  12  87 N21         N/A  WCI  -2
FOSSTON        LGT SNOW  14  12  92 NW9G17    29.50S WCI   2
BAUDETTE       FRZ RAIN  24  22  91 NW17G23   29.41F FOG     WCI  11
WASKISH        CLOUDY    25  23  93 W12       29.42S WCI  14
CROOKSTON      LGT SNOW  16  12  86 N22       29.58S WCI  -2
$$
  *****  WEATHER ACROSS CENTRAL AND WEST MINNESOTA  *****

CITY           SKY/WX    TMP DP  RH WIND       PRES   REMARKS
BEMIDJI        CLOUDY    19  17  94 W15       29.42F WCI   5
PARK RAPIDS    CLOUDY    19  15  84 NW15      29.42S WCI   5
WADENA         CLOUDY    18  16  93 NW17G23   29.43F WCI   2
DETROIT LAKES  MIX PCPN  18  16  93 NW21G30   29.49F WCI   1
MOORHEAD       LGT SNOW  18  16  93 N21G29    29.57F WCI   1
FERGUS FALLS   CLOUDY    18  12  79 N22G38    29.54S WCI   0
ELBOW LAKE       N/A     18  15  88 NW24G30   29.49S WCI   0
MORRIS MN        N/A     19  16  86 NW22G30   29.48F WCI   3
STAPLES        CLOUDY    19  18  93 NW18      29.41S WCI   4
WHEATON        CLOUDY    18  12  79 NW21G28   29.56F WCI   1
$$
  *****  WEATHER ELSEWHERE ACROSS MINNESOTA  *****

CITY           SKY/WX    TMP DP  RH WIND       PRES   REMARKS
DULUTH         LGT SNOW  34  32  92 NW12G20   29.24F FOG
INTRNTL FALLS  LGT SNOW  33  31  92 NW8       29.35F FOG
ELY            LGT SNOW  32  32 100 NW6       29.27F
CLOQUET        LGT SNOW  34  32  93 NW12G18   29.26F
BRAINERD       CLOUDY    28  25  88 NW15      29.37S WCI  16
HIBBING        CLOUDY    34  31  88 N13       29.28F WCI  25
ALEXANDRIA     CLOUDY    20  16  84 NW22G29   29.44S WCI   3
SAINT CLOUD    CLOUDY    32  25  75 NW18G28   29.35F WCI  20
MINNEAPOLIS    LGT SNOW  31  29  92 NW13      29.31F FOG     WCI  21
$$

  *****  WEATHER ACROSS SOUTH DAKOTA  *****

CITY           SKY/WX    TMP DP  RH WIND       PRES   REMARKS
SIOUX FALLS    CLOUDY    23  15  71 NW23G35   29.52S WCI   7
BROOKINGS      NOT AVBL
WATERTOWN      CLOUDY    16  10  77 NW22G31   29.52F WCI  -2
HURON          CLOUDY    21  12  68 NW28      29.62R WCI   3
SISSETON         N/A     18  12  77 N29       29.55S WCI  -1
ABERDEEN       CLOUDY    19  10  68 NW20      29.64S WCI   3
MITCHELL       CLOUDY    25  17  72 NW25G32   29.62F WCI   9
PIERRE         CLOUDY    25  16  68 N18G35    29.68R WCI  11
MOBRIDGE       CLOUDY    23  15  71 NW26G36   29.63F WCI   6
RAPID CITY     PTCLDY    31  20  63 N15       29.72S WCI  20
$$

  *****  SOME WEATHER IN NEARBY STATES *****

CITY           SKY/WX    TMP DP  RH WIND       PRES   REMARKS
GLASGOW MT     CLOUDY    18  14  84 E7        29.80R WCI   9
GREAT FALLS MT CLOUDY    35  24  64 SW12      29.81R
CHEYENNE WY    CLEAR     24   7  48 NW13G21   29.82S WCI  12
SCOTTSBLUFF NE CLEAR     27  17  66 W14       29.80F WCI  16
OMAHA NE       CLOUDY    33  23  66 NW17G29   29.53F WCI  22
DES MOINES IA  CLOUDY    34  27  75 NW25G35   29.38S WCI  21
DAVENPORT IA   CLOUDY    41  39  93 NW18G32   29.15F FOG
CHICAGO IL     LGT RAIN  49  48  97 SW7       29.07F FOG
EAU CLAIRE WI  CLOUDY    37  35  92 NW13      29.18F FOG
LA CROSSE WI   LGT RAIN  39  39 100 NW15      29.17F FOG
$$

  *****  SOME NATIONAL WEATHER *****

CITY           SKY/WX    TMP DP  RH WIND       PRES   REMARKS
LA GUARDIA NY  LGT RAIN  50  48  93 E8        29.88F FOG
RALEIGH NC     MOCLDY    64  60  87 S13       29.75S
ATLANTA GA     CLOUDY    61  57  87 S9        29.75F
NEW ORLEANS LA PTCLDY    65  63  93 S9        29.75R FOG
OKLAHOMA CITY  PTCLDY    39  32  76 NW6       29.81R
ALBUQUERQUE NM CLEAR     34  11  38 NW14      30.09R WCI  25
SALT LAKE CITY CLOUDY    36  23  59 SE7       30.22F
LOS ANGELES CA PTCLDY    63  16  16 CALM      30.15S
BOISE ID       CLOUDY    39  32  76 CALM      30.24R
SEATTLE WA     CLOUDY    46  41  82 CALM      30.34R
$$

*** WEATHER ACROSS MANITOBA...SASKATCHEWAN AND ONTARIO ***
                ***ONTARIO***

CITY           SKY/WX    TMP DP  RH WIND       PRES   REMARKS
GERALDTON      FRZ DRZL  19  19 100 NE12      29.34F FOG     WCI   7
THUNDER BAY    LGT RAIN  36  34  93 N3        29.24F FOG
SIOUX LOOKOUT  FLURRIES  19  18  93 N6        29.41F WCI  11
TORONTO        HVY RAIN  45  43  93 E13G21    29.37F FOG
BIG TROUT LK   LGT SNOW   0  -4  85 N7        29.78S WCI -13
PICKLE LAKE    NOT AVBL
DRYDEN         NOT AVBL
KENORA         FLURRIES  19  16  86 N15G21    29.46R WCI   5
$$
                *** MANITOBA***

CITY           SKY/WX    TMP DP  RH WIND       PRES   REMARKS
BRANDON        PTCLDY     3  -2  78 NW12      29.78R WCI -13
DAUPHIN        CLOUDY    -2  -6  84 W6        29.89R WCI -14
ISLAND LAKE    CLEAR     -9 -18  64 N6        29.86S WCI -23
PILOT MOUND      N/A      5   1  85 N21G28      N/A  WCI -16
THE PAS        CLEAR     -8 -13  77 CALM      29.94S
THOMPSON       CLEAR    -24 -31  69 CALM      29.95S
WINNIPEG       FLURRIES   9   3  78 N23       29.68S WCI -12
LYNN LAKE      CLOUDY    -2  -8  78 S7        29.83F WCI -16
CHURCHILL      MOCLDY   -13 -18  77 SW6       29.94S WCI -27
GILLAM         CLEAR    -22 -27  76 SW5       29.96F WCI -36
$$
                ***SASKATCHEWAN***

CITY           SKY/WX    TMP DP  RH WIND       PRES   REMARKS
ESTEVAN        PTCLDY     3   0  85 W7        29.81R WCI  -9
KINDERSLEY     MOCLDY    10   7  85 NW6       29.80R WCI   1
LLOYDMINSTER   CLOUDY    14  10  85 S5        29.75R WCI   6
PRINCE ALBERT  FLURRIES   1  -2  85 E5        29.87S WCI  -8
REGINA         NOT AVBL
YORKTON        CLEAR      0  -4  85 N5        29.85S WCI -10


USA.gov is the U.S. government's official web portal to all federal, state and local government web resources and services.